Time,TemperatureF,DewpointF,PressureIn,WindDirection,WindDirectionDegrees,WindSpeedMPH,WindSpeedGustMPH,Humidity,HourlyPrecipIn,Conditions,Clouds,dailyrainin,SoftwareType,DateUTC
2013-03-30 00:00:00,23.0,20.0,-100.00,NW,309,14.0,25.0,91,-99.99,,,-99.99,,2013-03-30 06:00:00,
2013-03-30 00:42:00,23.0,20.0,-100.00,NW,309,14.0,25.0,91,-99.99,,,-99.99,,2013-03-30 06:42:00,
2013-03-30 00:52:00,23.0,20.0,-100.00,NW,309,14.0,25.0,91,-99.99,,,-99.99,,2013-03-30 06:52:00,
2013-03-30 02:00:00,23.0,20.0,-100.00,WNW,302,15.0,27.0,87,-99.99,,,-99.99,,2013-03-30 08:00:00,
2013-03-30 02:42:00,23.0,20.0,-100.00,WNW,302,15.0,27.0,87,-99.99,,,-99.99,,2013-03-30 08:42:00,
2013-03-30 02:53:00,23.0,20.0,-100.00,WNW,302,15.0,27.0,87,-99.99,,,-99.99,,2013-03-30 08:53:00,
2013-03-30 04:00:00,22.0,20.0,-100.00,NNW,336,10.0,21.0,92,-99.99,,,-99.99,,2013-03-30 10:00:00,
2013-03-30 04:42:00,22.0,20.0,-100.00,NNW,336,10.0,21.0,92,-99.99,,,-99.99,,2013-03-30 10:42:00,
2013-03-30 04:52:00,22.0,20.0,-100.00,NNW,336,10.0,21.0,92,-99.99,,,-99.99,,2013-03-30 10:52:00,
2013-03-30 05:00:00,21.0,20.0,-100.00,North,354,10.0,20.0,95,-99.99,,,-99.99,,2013-03-30 11:00:00,
2013-03-30 05:43:00,21.0,20.0,-100.00,North,354,10.0,20.0,95,-99.99,,,-99.99,,2013-03-30 11:43:00,
2013-03-30 05:53:00,21.0,20.0,-100.00,North,354,10.0,20.0,95,-99.99,,,-99.99,,2013-03-30 11:53:00,
2013-03-30 07:00:00,21.0,17.0,-100.00,NW,324,13.0,29.0,86,-99.99,,,-99.99,,2013-03-30 13:00:00,
2013-03-30 07:43:00,21.0,17.0,-100.00,NW,324,13.0,29.0,86,-99.99,,,-99.99,,2013-03-30 13:43:00,
2013-03-30 07:53:00,21.0,17.0,-100.00,NW,324,13.0,29.0,86,-99.99,,,-99.99,,2013-03-30 13:53:00,
2013-03-30 08:00:00,21.0,16.0,-100.00,NW,307,15.0,33.0,82,-99.99,,,-99.99,,2013-03-30 14:00:00,
2013-03-30 08:43:00,21.0,16.0,-100.00,NW,307,15.0,33.0,82,-99.99,,,-99.99,,2013-03-30 14:43:00,
2013-03-30 08:52:00,21.0,16.0,-100.00,NW,307,15.0,33.0,82,-99.99,,,-99.99,,2013-03-30 14:52:00,
2013-03-30 09:00:00,22.0,17.0,-100.00,WNW,286,19.0,36.0,79,-99.99,,,-99.99,,2013-03-30 15:00:00,
2013-03-30 09:43:00,22.0,17.0,-100.00,WNW,286,19.0,36.0,79,-99.99,,,-99.99,,2013-03-30 15:43:00,
2013-03-30 09:53:00,22.0,17.0,-100.00,WNW,286,19.0,36.0,79,-99.99,,,-99.99,,2013-03-30 15:53:00,
2013-03-30 10:00:00,23.0,17.0,-100.00,WNW,294,22.0,36.0,76,-99.99,,,-99.99,,2013-03-30 16:00:00,
2013-03-30 10:43:00,23.0,17.0,-100.00,WNW,294,22.0,36.0,76,-99.99,,,-99.99,,2013-03-30 16:43:00,
2013-03-30 10:53:00,23.0,17.0,-100.00,WNW,294,22.0,36.0,76,-99.99,,,-99.99,,2013-03-30 16:53:00,
2013-03-30 11:00:00,25.0,16.0,-100.00,WNW,300,19.0,35.0,70,-99.99,,,-99.99,,2013-03-30 17:00:00,
2013-03-30 11:43:00,25.0,16.0,-100.00,WNW,300,19.0,35.0,70,-99.99,,,-99.99,,2013-03-30 17:43:00,
2013-03-30 11:53:00,25.0,16.0,-100.00,WNW,300,19.0,35.0,70,-99.99,,,-99.99,,2013-03-30 17:53:00,
2013-03-30 12:00:00,25.0,15.0,-100.00,NW,326,18.0,33.0,65,-99.99,,,-99.99,,2013-03-30 18:00:00,
2013-03-30 12:43:00,25.0,15.0,-100.00,NW,326,18.0,33.0,65,-99.99,,,-99.99,,2013-03-30 18:43:00,
2013-03-30 12:53:00,25.0,15.0,-100.00,NW,326,18.0,33.0,65,-99.99,,,-99.99,,2013-03-30 18:53:00,
2013-03-30 13:00:00,26.0,15.0,-100.00,NW,322,17.0,32.0,62,-99.99,,,-99.99,,2013-03-30 19:00:00,
2013-03-30 13:42:00,26.0,15.0,-100.00,NW,322,17.0,32.0,62,-99.99,,,-99.99,,2013-03-30 19:42:00,
2013-03-30 13:53:00,26.0,15.0,-100.00,NW,322,17.0,32.0,62,-99.99,,,-99.99,,2013-03-30 19:53:00,
2013-03-30 14:00:00,26.0,19.0,-100.00,NNW,339,14.0,29.0,72,-99.99,,,-99.99,,2013-03-30 20:00:00,
2013-03-30 14:43:00,26.0,19.0,-100.00,NNW,339,14.0,29.0,72,-99.99,,,-99.99,,2013-03-30 20:43:00,
2013-03-30 14:53:00,26.0,19.0,-100.00,NNW,339,14.0,29.0,72,-99.99,,,-99.99,,2013-03-30 20:53:00,
2013-03-30 15:00:00,27.0,18.0,-100.00,NW,312,16.0,32.0,68,-99.99,,,-99.99,,2013-03-30 21:00:00,
2013-03-30 15:43:00,27.0,18.0,-100.00,NW,312,16.0,32.0,68,-99.99,,,-99.99,,2013-03-30 21:43:00,
2013-03-30 15:53:00,27.0,18.0,-100.00,NW,312,16.0,32.0,68,-99.99,,,-99.99,,2013-03-30 21:53:00,
2013-03-30 16:00:00,26.0,17.0,-100.00,WNW,298,21.0,37.0,68,-99.99,,,-99.99,,2013-03-30 22:00:00,
2013-03-30 16:43:00,26.0,17.0,-100.00,WNW,298,21.0,37.0,68,-99.99,,,-99.99,,2013-03-30 22:43:00,
2013-03-30 16:53:00,26.0,17.0,-100.00,WNW,298,21.0,37.0,68,-99.99,,,-99.99,,2013-03-30 22:53:00,
2013-03-30 17:00:00,25.0,20.0,-100.00,NNW,327,16.0,31.0,83,-99.99,,,-99.99,,2013-03-30 23:00:00,
2013-03-30 17:43:00,25.0,20.0,-100.00,NNW,327,16.0,31.0,83,-99.99,,,-99.99,,2013-03-30 23:43:00,
2013-03-30 17:53:00,25.0,20.0,-100.00,NNW,327,16.0,31.0,83,-99.99,,,-99.99,,2013-03-30 23:53:00,
2013-03-30 18:00:00,23.0,22.0,-100.00,North,351,16.0,31.0,96,-99.99,,,-99.99,,2013-03-31 00:00:00,
2013-03-30 18:43:00,23.0,22.0,-100.00,North,351,16.0,31.0,96,-99.99,,,-99.99,,2013-03-31 00:43:00,
2013-03-30 18:53:00,23.0,22.0,-100.00,North,351,16.0,31.0,96,-99.99,,,-99.99,,2013-03-31 00:53:00,
2013-03-30 19:00:00,22.0,21.0,-100.00,North,357,12.0,30.0,97,-99.99,,,-99.99,,2013-03-31 01:00:00,
2013-03-30 19:43:00,22.0,21.0,-100.00,North,357,12.0,30.0,97,-99.99,,,-99.99,,2013-03-31 01:43:00,
2013-03-30 19:53:00,22.0,21.0,-100.00,North,357,12.0,30.0,97,-99.99,,,-99.99,,2013-03-31 01:53:00,
2013-03-30 20:00:00,21.0,20.0,-100.00,NNW,346,18.0,38.0,97,-99.99,,,-99.99,,2013-03-31 02:00:00,
2013-03-30 20:43:00,21.0,20.0,-100.00,NNW,346,18.0,38.0,97,-99.99,,,-99.99,,2013-03-31 02:43:00,
2013-03-30 20:52:00,21.0,20.0,-100.00,NNW,346,18.0,38.0,97,-99.99,,,-99.99,,2013-03-31 02:52:00,
2013-03-30 22:00:00,20.0,19.0,-100.00,NNW,337,16.0,25.0,94,-99.99,,,-99.99,,2013-03-31 04:00:00,
2013-03-30 22:43:00,20.0,19.0,-100.00,NNW,337,16.0,25.0,94,-99.99,,,-99.99,,2013-03-31 04:43:00,
2013-03-30 22:53:00,20.0,19.0,-100.00,NNW,337,16.0,25.0,94,-99.99,,,-99.99,,2013-03-31 04:53:00,
2013-03-30 23:00:00,20.0,17.0,-100.00,NNW,335,15.0,19.0,89,-99.99,,,-99.99,,2013-03-31 05:00:00,
2013-03-30 23:42:00,20.0,17.0,-100.00,NNW,335,15.0,19.0,89,-99.99,,,-99.99,,2013-03-31 05:42:00,
2013-03-30 23:53:00,20.0,17.0,-100.00,NNW,335,15.0,19.0,89,-99.99,,,-99.99,,2013-03-31 05:53:00,